Location: Izdebno
(52.6670°N, 16.2170°E)
Time: 02:42:51
(UTC+02:00)

Transit 2A - Pass Details

Date: 25 February 2024
Orbit: 596 x 956 km, 66.7° (Epoch: 21 April)

Event Time Altitude Azimuth Distance (km) Brightness Sun altitude
Rises 02:36:34 0° 321° (NW) 2,927 - -37.3°
Reaches altitude 10° 02:38:56 10° 330° (NNW) 2,055 - -37.1°
Maximum altitude 02:43:13 36° 38° (NE) 1,085 - -36.6°
Exits shadow 02:46:38 16° 97° (E) 1,809 8.3 -36.2°
Drops below altitude 10° 02:47:52 10° 105° (ESE) 2,233 8.7 -36.0°
Sets 02:50:32 0° 114° (ESE) 3,219 9.6 -35.7°
